Time,TemperatureF,DewpointF,PressureIn,WindDirection,WindDirectionDegrees,WindSpeedMPH,WindSpeedGustMPH,Humidity,HourlyPrecipIn,Conditions,Clouds,dailyrainin,SolarRadiationWatts/m^2,SoftwareType,DateUTC
2013-02-05 00:00:00,12.8,0.1,29.85,WNW,286,0.0,1.0,56,0.00,,---,0.00,0.00,VWS V14.01,2013-02-05 05:00:00,
2013-02-05 00:05:00,12.8,-0.3,29.85,WNW,286,0.0,0.0,55,0.00,,---,0.00,0.00,VWS V14.01,2013-02-05 05:05:00,
2013-02-05 00:10:00,12.7,-0.4,29.85,WNW,286,0.0,0.0,55,0.00,,---,0.00,0.00,VWS V14.01,2013-02-05 05:10:00,
2013-02-05 00:15:00,12.7,-0.4,29.85,WNW,286,0.0,0.0,55,0.00,,---,0.00,0.00,VWS V14.01,2013-02-05 05:15:00,
2013-02-05 00:20:00,12.5,-0.6,29.85,WNW,286,0.0,0.0,55,0.00,,---,0.00,0.00,VWS V14.01,2013-02-05 05:20:00,
2013-02-05 00:25:00,12.7,-0.8,29.85,WNW,286,0.0,0.0,54,0.00,,---,0.00,0.00,VWS V14.01,2013-02-05 05:25:00,
2013-02-05 00:30:00,12.5,-0.6,29.85,WNW,286,0.0,0.0,55,0.00,,---,0.00,0.00,VWS V14.01,2013-02-05 05:30:00,
2013-02-05 00:35:00,12.0,-0.7,29.85,WNW,286,0.0,0.0,56,0.00,,---,0.00,0.00,VWS V14.01,2013-02-05 05:35:00,
2013-02-05 00:40:00,11.8,-0.1,29.85,WNW,286,0.0,0.0,58,0.00,,---,0.00,0.00,VWS V14.01,2013-02-05 05:40:00,
2013-02-05 00:45:00,11.5,0.3,29.85,WNW,286,1.0,1.0,60,0.00,,---,0.00,0.00,VWS V14.01,2013-02-05 05:45:00,
2013-02-05 00:50:00,11.3,0.1,29.85,WNW,286,0.0,0.0,60,0.00,,---,0.00,0.00,VWS V14.01,2013-02-05 05:50:00,
2013-02-05 00:55:00,11.1,-0.1,29.85,WNW,286,0.0,0.0,60,0.00,,---,0.00,0.00,VWS V14.01,2013-02-05 05:55:00,
2013-02-05 01:00:00,11.1,-0.4,29.86,WNW,286,0.0,0.0,59,0.00,,---,0.00,0.00,VWS V14.01,2013-02-05 06:00:00,
2013-02-05 01:05:00,10.8,-0.3,29.86,WNW,286,0.0,0.0,60,0.00,,---,0.00,0.00,VWS V14.01,2013-02-05 06:05:00,
2013-02-05 01:10:00,10.6,0.2,29.86,WNW,286,0.0,0.0,62,0.00,,---,0.00,0.00,VWS V14.01,2013-02-05 06:10:00,
2013-02-05 01:15:00,10.4,-0.4,29.86,WNW,286,0.0,0.0,61,0.00,,---,0.00,0.00,VWS V14.01,2013-02-05 06:15:00,
2013-02-05 01:20:00,10.3,-0.5,29.86,WNW,286,0.0,0.0,61,0.00,,---,0.00,0.00,VWS V14.01,2013-02-05 06:20:00,
2013-02-05 01:25:00,10.3,-0.8,29.86,WNW,286,0.0,0.0,60,0.00,,---,0.00,0.00,VWS V14.01,2013-02-05 06:25:00,
2013-02-05 01:30:00,10.3,-0.8,29.87,WNW,286,0.0,0.0,60,0.00,,---,0.00,0.00,VWS V14.01,2013-02-05 06:30:00,
2013-02-05 01:35:00,10.3,-0.8,29.87,WNW,286,1.0,1.0,60,0.00,,---,0.00,0.00,VWS V14.01,2013-02-05 06:35:00,
2013-02-05 01:40:00,10.4,-0.7,29.87,WNW,286,0.0,1.0,60,0.00,,---,0.00,0.00,VWS V14.01,2013-02-05 06:40:00,
2013-02-05 01:45:00,10.6,-0.5,29.87,WNW,286,0.0,2.0,60,0.00,,---,0.00,0.00,VWS V14.01,2013-02-05 06:45:00,
2013-02-05 01:50:00,10.8,-0.3,29.88,WNW,286,0.0,0.0,60,0.00,,---,0.00,0.00,VWS V14.01,2013-02-05 06:50:00,
2013-02-05 01:55:00,10.8,-0.7,29.88,WNW,286,0.0,1.0,59,0.00,,---,0.00,0.00,VWS V14.01,2013-02-05 06:55:00,
2013-02-05 02:00:00,10.8,-1.1,29.88,WNW,286,0.0,1.0,58,0.00,,---,0.00,0.00,VWS V14.01,2013-02-05 07:00:00,
2013-02-05 02:05:00,10.8,-1.1,29.88,WNW,286,0.0,0.0,58,0.00,,---,0.00,0.00,VWS V14.01,2013-02-05 07:05:00,
2013-02-05 02:10:00,10.8,-1.8,29.88,WNW,286,0.0,0.0,56,0.00,,---,0.00,0.00,VWS V14.01,2013-02-05 07:10:00,
2013-02-05 02:15:00,10.8,-1.8,29.89,WNW,286,0.0,0.0,56,0.00,,---,0.00,0.00,VWS V14.01,2013-02-05 07:15:00,
2013-02-05 02:20:00,10.6,-2.0,29.89,WNW,286,0.0,0.0,56,0.00,,---,0.00,0.00,VWS V14.01,2013-02-05 07:20:00,
2013-02-05 02:25:00,10.4,-1.4,29.88,WNW,286,0.0,0.0,58,0.00,,---,0.00,0.00,VWS V14.01,2013-02-05 07:25:00,
2013-02-05 02:30:00,10.1,-1.7,29.89,WNW,286,0.0,0.0,58,0.00,,---,0.00,0.00,VWS V14.01,2013-02-05 07:30:00,
2013-02-05 02:35:00,10.1,-2.1,29.88,WNW,286,0.0,0.0,57,0.00,,---,0.00,0.00,VWS V14.01,2013-02-05 07:35:00,
2013-02-05 02:41:00,9.8,-2.0,29.89,WNW,286,0.0,0.0,58,0.00,,---,0.00,0.00,VWS V14.01,2013-02-05 07:41:00,
2013-02-05 02:46:00,9.6,-1.5,29.88,WNW,286,0.0,0.0,60,0.00,,---,0.00,0.00,VWS V14.01,2013-02-05 07:46:00,
2013-02-05 02:51:00,9.2,-1.5,29.89,WNW,286,0.0,0.0,61,0.00,,---,0.00,0.00,VWS V14.01,2013-02-05 07:51:00,
2013-02-05 02:56:00,9.1,-1.3,29.89,WNW,286,0.0,0.0,62,0.00,,---,0.00,0.00,VWS V14.01,2013-02-05 07:56:00,
2013-02-05 03:01:00,9.1,-0.9,29.89,WNW,286,0.0,0.0,63,0.00,,---,0.00,0.00,VWS V14.01,2013-02-05 08:01:00,
2013-02-05 03:06:00,9.1,-0.9,29.88,WNW,286,0.0,1.0,63,0.00,,---,0.00,0.00,VWS V14.01,2013-02-05 08:06:00,
2013-02-05 03:11:00,9.2,-0.8,29.88,WNW,286,0.0,1.0,63,0.00,,---,0.00,0.00,VWS V14.01,2013-02-05 08:11:00,
2013-02-05 03:16:00,9.4,-0.6,29.88,WNW,286,0.0,1.0,63,0.00,,---,0.00,0.00,VWS V14.01,2013-02-05 08:16:00,
2013-02-05 03:21:00,9.6,-0.4,29.88,WNW,286,0.0,0.0,63,0.00,,---,0.00,0.00,VWS V14.01,2013-02-05 08:21:00,
2013-02-05 03:26:00,9.8,-0.6,29.88,WNW,286,0.0,0.0,62,0.00,,---,0.00,0.00,VWS V14.01,2013-02-05 08:26:00,
2013-02-05 03:31:00,9.8,-0.9,29.88,WNW,286,0.0,0.0,61,0.00,,---,0.00,0.00,VWS V14.01,2013-02-05 08:31:00,
2013-02-05 03:36:00,9.8,-1.6,29.88,WNW,286,0.0,0.0,59,0.00,,---,0.00,0.00,VWS V14.01,2013-02-05 08:36:00,
2013-02-05 03:41:00,9.8,-0.9,29.89,WNW,286,0.0,0.0,61,0.00,,---,0.00,0.00,VWS V14.01,2013-02-05 08:41:00,
2013-02-05 03:46:00,9.6,-0.4,29.89,WNW,286,0.0,0.0,63,0.00,,---,0.00,0.00,VWS V14.01,2013-02-05 08:46:00,
2013-02-05 03:51:00,9.2,-0.8,29.89,WNW,286,0.0,0.0,63,0.00,,---,0.00,0.00,VWS V14.01,2013-02-05 08:51:00,
2013-02-05 03:56:00,9.1,-0.9,29.89,WNW,286,0.0,0.0,63,0.00,,---,0.00,0.00,VWS V14.01,2013-02-05 08:56:00,
2013-02-05 04:01:00,8.9,-1.1,29.90,WNW,286,0.0,0.0,63,0.00,,---,0.00,0.00,VWS V14.01,2013-02-05 09:01:00,
2013-02-05 04:06:00,8.7,-1.0,29.90,WNW,286,0.0,0.0,64,0.00,,---,0.00,0.00,VWS V14.01,2013-02-05 09:06:00,
2013-02-05 04:11:00,8.5,-1.2,29.90,WNW,286,0.0,0.0,64,0.00,,---,0.00,0.00,VWS V14.01,2013-02-05 09:11:00,
2013-02-05 04:16:00,8.7,-1.3,29.90,WNW,286,0.0,0.0,63,0.00,,---,0.00,0.00,VWS V14.01,2013-02-05 09:16:00,
2013-02-05 04:21:00,8.5,-1.2,29.90,WNW,286,0.0,0.0,64,0.00,,---,0.00,0.00,VWS V14.01,2013-02-05 09:21:00,
2013-02-05 04:26:00,8.3,-1.0,29.90,WNW,286,0.0,0.0,65,0.00,,---,0.00,0.00,VWS V14.01,2013-02-05 09:26:00,
2013-02-05 04:31:00,8.2,-1.1,29.90,WNW,286,0.0,0.0,65,0.00,,---,0.00,0.00,VWS V14.01,2013-02-05 09:31:00,
2013-02-05 04:36:00,8.2,-1.1,29.90,WNW,286,0.0,0.0,65,0.00,,---,0.00,0.00,VWS V14.01,2013-02-05 09:36:00,
2013-02-05 04:41:00,8.2,-1.1,29.90,WNW,286,0.0,0.0,65,0.00,,---,0.00,0.00,VWS V14.01,2013-02-05 09:41:00,
2013-02-05 04:46:00,8.0,-1.3,29.91,WNW,286,0.0,0.0,65,0.00,,---,0.00,0.00,VWS V14.01,2013-02-05 09:46:00,
2013-02-05 04:51:00,8.0,-1.3,29.91,WNW,286,0.0,0.0,65,0.00,,---,0.00,0.00,VWS V14.01,2013-02-05 09:51:00,
2013-02-05 04:56:00,7.8,-1.2,29.92,WNW,286,0.0,0.0,66,0.00,,---,0.00,0.00,VWS V14.01,2013-02-05 09:56:00,
2013-02-05 05:01:00,7.8,-1.2,29.91,WNW,286,0.0,0.0,66,0.00,,---,0.00,0.00,VWS V14.01,2013-02-05 10:01:00,
2013-02-05 05:06:00,7.6,-1.4,29.91,WNW,286,0.0,0.0,66,0.00,,---,0.00,0.00,VWS V14.01,2013-02-05 10:06:00,
2013-02-05 05:11:00,7.3,-1.3,29.91,WNW,286,0.0,0.0,67,0.00,,---,0.00,0.00,VWS V14.01,2013-02-05 10:11:00,
2013-02-05 05:16:00,6.9,-1.7,29.91,WNW,286,0.0,0.0,67,0.00,,---,0.00,0.00,VWS V14.01,2013-02-05 10:16:00,
2013-02-05 05:21:00,6.8,-1.5,29.91,WNW,286,0.0,0.0,68,0.00,,---,0.00,0.00,VWS V14.01,2013-02-05 10:21:00,
2013-02-05 05:26:00,6.8,-1.5,29.91,WNW,286,0.0,0.0,68,0.00,,---,0.00,0.00,VWS V14.01,2013-02-05 10:26:00,
2013-02-05 05:31:00,6.8,-1.2,29.91,WNW,286,0.0,0.0,69,0.00,,---,0.00,0.00,VWS V14.01,2013-02-05 10:31:00,
2013-02-05 05:36:00,6.8,-1.2,29.92,WNW,286,0.0,0.0,69,0.00,,---,0.00,0.00,VWS V14.01,2013-02-05 10:36:00,
2013-02-05 05:41:00,6.8,-1.2,29.92,WNW,286,0.0,0.0,69,0.00,,---,0.00,0.00,VWS V14.01,2013-02-05 10:41:00,
2013-02-05 05:46:00,6.8,-1.2,29.92,WNW,286,0.0,0.0,69,0.00,,---,0.00,0.00,VWS V14.01,2013-02-05 10:46:00,
2013-02-05 05:51:00,6.8,-0.9,29.92,WNW,286,0.0,0.0,70,0.00,,---,0.00,0.00,VWS V14.01,2013-02-05 10:51:00,
2013-02-05 05:56:00,6.6,-1.1,29.92,WNW,286,0.0,0.0,70,0.00,,---,0.00,0.00,VWS V14.01,2013-02-05 10:56:00,
2013-02-05 06:01:00,6.6,-1.1,29.92,WNW,286,0.0,0.0,70,0.00,,---,0.00,0.00,VWS V14.01,2013-02-05 11:01:00,
2013-02-05 06:06:00,6.4,-1.3,29.92,WNW,286,0.0,0.0,70,0.00,,---,0.00,0.00,VWS V14.01,2013-02-05 11:06:00,
2013-02-05 06:11:00,6.4,-1.0,29.92,WNW,286,0.0,0.0,71,0.00,,---,0.00,0.00,VWS V14.01,2013-02-05 11:11:00,
2013-02-05 06:16:00,6.2,-1.2,29.93,WNW,286,0.0,0.0,71,0.00,,---,0.00,0.00,VWS V14.01,2013-02-05 11:16:00,
2013-02-05 06:21:00,6.2,-1.2,29.93,WNW,286,0.0,0.0,71,0.00,,---,0.00,0.00,VWS V14.01,2013-02-05 11:21:00,
2013-02-05 06:26:00,6.0,-1.4,29.93,WNW,286,0.0,0.0,71,0.00,,---,0.00,0.00,VWS V14.01,2013-02-05 11:26:00,
2013-02-05 06:31:00,5.9,-1.5,29.93,WNW,286,0.0,0.0,71,0.00,,---,0.00,0.00,VWS V14.01,2013-02-05 11:31:00,
2013-02-05 06:36:00,5.9,-1.5,29.93,WNW,286,0.0,0.0,71,0.00,,---,0.00,0.00,VWS V14.01,2013-02-05 11:36:00,
2013-02-05 06:41:00,5.9,-1.5,29.94,WNW,286,0.0,0.0,71,0.00,,---,0.00,0.00,VWS V14.01,2013-02-05 11:41:00,
2013-02-05 06:46:00,5.7,-1.7,29.94,WNW,286,0.0,0.0,71,0.00,,---,0.00,0.00,VWS V14.01,2013-02-05 11:46:00,
2013-02-05 06:51:00,5.7,-1.7,29.94,WNW,286,0.0,0.0,71,0.00,,---,0.00,0.00,VWS V14.01,2013-02-05 11:51:00,
2013-02-05 06:56:00,5.5,-1.9,29.94,WNW,286,0.0,0.0,71,0.00,,---,0.00,0.00,VWS V14.01,2013-02-05 11:56:00,
2013-02-05 07:01:00,5.5,-1.5,29.94,WNW,286,0.0,0.0,72,0.00,,---,0.00,0.00,VWS V14.01,2013-02-05 12:01:00,
2013-02-05 07:06:00,5.5,-1.5,29.95,WNW,286,0.0,0.0,72,0.00,,---,0.00,5.00,VWS V14.01,2013-02-05 12:06:00,
2013-02-05 07:11:00,5.5,-1.5,29.95,WNW,286,0.0,0.0,72,0.00,,---,0.00,7.00,VWS V14.01,2013-02-05 12:11:00,
2013-02-05 07:16:00,5.5,-1.9,29.95,WNW,286,0.0,0.0,71,0.00,,---,0.00,9.00,VWS V14.01,2013-02-05 12:16:00,
2013-02-05 07:21:00,5.5,-1.9,29.95,WNW,286,0.0,0.0,71,0.00,,---,0.00,12.00,VWS V14.01,2013-02-05 12:21:00,
2013-02-05 07:26:00,5.7,-1.7,29.95,WNW,286,0.0,0.0,71,0.00,,---,0.00,18.00,VWS V14.01,2013-02-05 12:26:00,
2013-02-05 07:31:00,5.7,-2.0,29.95,WNW,286,0.0,0.0,70,0.00,,---,0.00,19.00,VWS V14.01,2013-02-05 12:31:00,
2013-02-05 07:36:00,5.7,-2.0,29.96,WNW,286,0.0,0.0,70,0.00,,---,0.00,23.00,VWS V14.01,2013-02-05 12:36:00,
2013-02-05 07:41:00,5.7,-1.7,29.96,WNW,286,0.0,0.0,71,0.00,,---,0.00,25.00,VWS V14.01,2013-02-05 12:41:00,
2013-02-05 07:47:00,5.9,-1.5,29.96,WNW,286,0.0,0.0,71,0.00,,---,0.00,28.00,VWS V14.01,2013-02-05 12:47:00,
2013-02-05 07:52:00,6.0,-1.4,29.96,WNW,286,0.0,0.0,71,0.00,,---,0.00,21.00,VWS V14.01,2013-02-05 12:52:00,
2013-02-05 07:56:00,6.4,-1.3,29.96,WNW,286,0.0,0.0,70,0.00,,---,0.00,32.00,VWS V14.01,2013-02-05 12:56:00,
2013-02-05 08:01:00,6.8,-0.9,29.97,WNW,286,0.0,0.0,70,0.00,,---,0.00,28.00,VWS V14.01,2013-02-05 13:01:00,
2013-02-05 08:07:00,6.9,-1.1,29.97,WNW,286,0.0,0.0,69,0.00,,---,0.00,35.00,VWS V14.01,2013-02-05 13:07:00,
2013-02-05 08:12:00,7.5,-1.5,29.97,WNW,286,0.0,0.0,66,0.00,,---,0.00,46.00,VWS V14.01,2013-02-05 13:12:00,
2013-02-05 08:17:00,8.0,-1.6,29.98,WNW,286,0.0,0.0,64,0.00,,---,0.00,46.00,VWS V14.01,2013-02-05 13:17:00,
2013-02-05 08:22:00,8.2,-1.8,29.98,WNW,286,0.0,0.0,63,0.00,,---,0.00,49.00,VWS V14.01,2013-02-05 13:22:00,
2013-02-05 08:27:00,8.5,-1.8,29.98,WNW,286,0.0,0.0,62,0.00,,---,0.00,56.00,VWS V14.01,2013-02-05 13:27:00,
2013-02-05 08:32:00,8.7,-1.6,29.98,WNW,286,0.0,0.0,62,0.00,,---,0.00,74.00,VWS V14.01,2013-02-05 13:32:00,
2013-02-05 08:37:00,9.1,-1.3,29.98,WNW,286,0.0,0.0,62,0.00,,---,0.00,51.00,VWS V14.01,2013-02-05 13:37:00,
2013-02-05 08:42:00,9.6,-1.5,29.98,WNW,286,0.0,0.0,60,0.00,,---,0.00,32.00,VWS V14.01,2013-02-05 13:42:00,
2013-02-05 08:47:00,9.8,-1.3,29.99,WNW,286,0.0,0.0,60,0.00,,---,0.00,79.00,VWS V14.01,2013-02-05 13:47:00,
2013-02-05 08:52:00,9.9,-1.9,29.99,WNW,286,0.0,0.0,58,0.00,,---,0.00,58.00,VWS V14.01,2013-02-05 13:52:00,
2013-02-05 08:57:00,10.4,-1.8,29.99,WNW,286,0.0,0.0,57,0.00,,---,0.00,105.00,VWS V14.01,2013-02-05 13:57:00,
2013-02-05 09:02:00,11.3,-0.6,29.99,WNW,286,0.0,0.0,58,0.00,,---,0.00,139.00,VWS V14.01,2013-02-05 14:02:00,
2013-02-05 09:07:00,11.8,-0.9,29.99,WNW,286,0.0,1.0,56,0.00,,---,0.00,135.00,VWS V14.01,2013-02-05 14:07:00,
2013-02-05 09:12:00,12.5,-1.4,29.99,WNW,286,0.0,1.0,53,0.00,,---,0.00,211.00,VWS V14.01,2013-02-05 14:12:00,
2013-02-05 09:17:00,12.8,-1.1,29.98,WNW,288,0.0,0.0,53,0.00,,---,0.00,234.00,VWS V14.01,2013-02-05 14:17:00,
2013-02-05 09:22:00,13.4,-0.5,29.98,WNW,288,0.0,0.0,53,0.00,,---,0.00,234.00,VWS V14.01,2013-02-05 14:22:00,
2013-02-05 09:27:00,14.0,0.4,29.99,WNW,287,0.0,1.0,54,0.00,,---,0.00,341.00,VWS V14.01,2013-02-05 14:27:00,
2013-02-05 09:32:00,14.7,-0.1,29.99,NNW,339,0.0,0.0,51,0.00,,---,0.00,297.00,VWS V14.01,2013-02-05 14:32:00,
2013-02-05 09:37:00,14.5,-0.3,29.99,NNW,339,0.0,2.0,51,0.00,,---,0.00,330.00,VWS V14.01,2013-02-05 14:37:00,
2013-02-05 09:42:00,14.7,0.3,29.99,WSW,258,0.0,2.0,52,0.00,,---,0.00,236.00,VWS V14.01,2013-02-05 14:42:00,
2013-02-05 09:47:00,15.8,0.0,29.99,NW,304,0.0,1.0,49,0.00,,---,0.00,229.00,VWS V14.01,2013-02-05 14:47:00,
2013-02-05 09:52:00,16.3,-0.4,29.99,WSW,246,2.0,5.0,47,0.00,,---,0.00,206.00,VWS V14.01,2013-02-05 14:52:00,
2013-02-05 09:57:00,16.4,0.2,29.99,NNW,328,1.0,5.0,48,0.00,,---,0.00,272.00,VWS V14.01,2013-02-05 14:57:00,
2013-02-05 10:02:00,16.9,0.6,29.98,NNW,327,1.0,1.0,48,0.00,,---,0.00,244.00,VWS V14.01,2013-02-05 15:02:00,
2013-02-05 10:07:00,17.2,1.8,29.99,West,268,2.0,2.0,50,0.00,,---,0.00,214.00,VWS V14.01,2013-02-05 15:07:00,
2013-02-05 10:12:00,17.6,2.6,29.99,WNW,284,0.0,3.0,51,0.00,,---,0.00,246.00,VWS V14.01,2013-02-05 15:12:00,
2013-02-05 10:17:00,17.9,0.6,29.99,WNW,299,0.0,1.0,46,0.00,,---,0.00,264.00,VWS V14.01,2013-02-05 15:17:00,
2013-02-05 10:22:00,18.3,1.5,29.99,West,260,4.0,4.0,47,0.00,,---,0.00,299.00,VWS V14.01,2013-02-05 15:22:00,
2013-02-05 10:27:00,18.8,1.9,29.99,West,272,1.0,4.0,47,0.00,,---,0.00,418.00,VWS V14.01,2013-02-05 15:27:00,
2013-02-05 10:32:00,19.1,1.3,29.99,WNW,300,0.0,1.0,45,0.00,,---,0.00,497.00,VWS V14.01,2013-02-05 15:32:00,
2013-02-05 10:37:00,19.0,2.1,29.99,West,267,2.0,3.0,47,0.00,,---,0.00,504.00,VWS V14.01,2013-02-05 15:37:00,
2013-02-05 10:42:00,19.8,1.4,29.99,West,275,0.0,3.0,44,0.00,,---,0.00,512.00,VWS V14.01,2013-02-05 15:42:00,
2013-02-05 10:47:00,20.5,1.6,29.98,West,275,1.0,1.0,43,0.00,,---,0.00,478.00,VWS V14.01,2013-02-05 15:47:00,
2013-02-05 10:52:00,20.9,2.9,29.98,West,277,0.0,3.0,45,0.00,,---,0.00,418.00,VWS V14.01,2013-02-05 15:52:00,
2013-02-05 10:57:00,20.9,2.9,29.98,WNW,284,0.0,3.0,45,0.00,,---,0.00,441.00,VWS V14.01,2013-02-05 15:57:00,
2013-02-05 11:02:00,21.3,3.3,29.98,WNW,293,0.0,2.0,45,0.00,,---,0.00,485.00,VWS V14.01,2013-02-05 16:02:00,
2013-02-05 11:07:00,21.3,2.3,29.98,NW,322,1.0,2.0,43,0.00,,---,0.00,531.00,VWS V14.01,2013-02-05 16:07:00,
2013-02-05 11:12:00,22.0,1.4,29.98,WNW,288,0.0,2.0,40,0.00,,---,0.00,383.00,VWS V14.01,2013-02-05 16:12:00,
2013-02-05 11:17:00,21.7,1.6,29.97,NW,306,1.0,1.0,41,0.00,,---,0.00,381.00,VWS V14.01,2013-02-05 16:17:00,
2013-02-05 11:22:00,21.0,1.0,29.97,WNW,295,0.0,2.0,41,0.00,,---,0.00,292.00,VWS V14.01,2013-02-05 16:22:00,
2013-02-05 11:27:00,20.7,0.2,29.97,WNW,294,0.0,2.0,40,0.00,,---,0.00,248.00,VWS V14.01,2013-02-05 16:27:00,
2013-02-05 11:32:00,20.5,1.6,29.97,NW,313,0.0,0.0,43,0.00,,---,0.00,396.00,VWS V14.01,2013-02-05 16:32:00,
2013-02-05 11:37:00,20.9,1.4,29.96,WNW,298,1.0,2.0,42,0.00,,---,0.00,366.00,VWS V14.01,2013-02-05 16:37:00,
2013-02-05 11:42:00,21.3,3.3,29.96,West,263,0.0,3.0,45,0.00,,---,0.00,446.00,VWS V14.01,2013-02-05 16:42:00,
2013-02-05 11:47:00,22.4,2.8,29.96,WNW,293,2.0,2.0,42,0.00,,---,0.00,378.00,VWS V14.01,2013-02-05 16:47:00,
2013-02-05 11:52:00,21.8,2.2,29.96,NW,323,1.0,2.0,42,0.00,,---,0.00,353.00,VWS V14.01,2013-02-05 16:52:00,
2013-02-05 11:57:00,22.1,2.5,29.95,West,277,0.0,2.0,42,0.00,,---,0.00,410.00,VWS V14.01,2013-02-05 16:57:00,
2013-02-05 12:02:00,22.3,2.7,29.95,West,277,1.0,2.0,42,0.00,,---,0.00,536.00,VWS V14.01,2013-02-05 17:02:00,
2013-02-05 12:07:00,22.6,3.0,29.95,WNW,282,1.0,2.0,42,0.00,,---,0.00,348.00,VWS V14.01,2013-02-05 17:07:00,
2013-02-05 12:12:00,22.8,2.1,29.95,NNW,337,2.0,2.0,40,0.00,,---,0.00,541.00,VWS V14.01,2013-02-05 17:12:00,
2013-02-05 12:17:00,23.7,2.4,29.94,WNW,292,3.0,3.0,39,0.00,,---,0.00,401.00,VWS V14.01,2013-02-05 17:17:00,
2013-02-05 12:22:00,24.0,2.1,29.94,NW,326,1.0,6.0,38,0.00,,---,0.00,413.00,VWS V14.01,2013-02-05 17:22:00,
2013-02-05 12:27:00,24.3,2.9,29.94,West,268,2.0,6.0,39,0.00,,---,0.00,533.00,VWS V14.01,2013-02-05 17:27:00,
2013-02-05 12:32:00,24.4,1.9,29.94,WNW,292,2.0,2.0,37,0.00,,---,0.00,388.00,VWS V14.01,2013-02-05 17:32:00,
2013-02-05 12:37:00,24.6,2.1,29.94,West,278,1.0,4.0,37,0.00,,---,0.00,325.00,VWS V14.01,2013-02-05 17:37:00,
2013-02-05 12:42:00,24.4,2.5,29.94,West,279,1.0,4.0,38,0.00,,---,0.00,487.00,VWS V14.01,2013-02-05 17:42:00,
2013-02-05 12:47:00,25.0,1.8,29.94,WNW,303,3.0,3.0,36,0.00,,---,0.00,554.00,VWS V14.01,2013-02-05 17:47:00,
2013-02-05 12:52:00,25.7,3.0,29.94,WNW,294,2.0,7.0,37,0.00,,---,0.00,566.00,VWS V14.01,2013-02-05 17:52:00,
2013-02-05 12:57:00,25.6,2.4,29.94,North,5,2.0,7.0,36,0.00,,---,0.00,462.00,VWS V14.01,2013-02-05 17:57:00,
2013-02-05 13:02:00,25.3,2.7,29.94,West,265,6.0,6.0,37,0.00,,---,0.00,482.00,VWS V14.01,2013-02-05 18:02:00,
2013-02-05 13:07:00,25.6,3.0,29.94,West,260,1.0,6.0,37,0.00,,---,0.00,531.00,VWS V14.01,2013-02-05 18:07:00,
2013-02-05 13:12:00,25.5,2.3,29.93,West,277,0.0,6.0,36,0.00,,---,0.00,316.00,VWS V14.01,2013-02-05 18:12:00,
2013-02-05 13:17:00,24.9,1.7,29.93,West,279,0.0,1.0,36,0.00,,---,0.00,311.00,VWS V14.01,2013-02-05 18:17:00,
2013-02-05 13:22:00,24.4,1.9,29.93,West,279,0.0,2.0,37,0.00,,---,0.00,373.00,VWS V14.01,2013-02-05 18:22:00,
2013-02-05 13:27:00,25.6,3.0,29.93,West,279,0.0,2.0,37,0.00,,---,0.00,531.00,VWS V14.01,2013-02-05 18:27:00,
2013-02-05 13:33:00,26.6,2.7,29.93,WNW,296,0.0,2.0,35,0.00,,---,0.00,513.00,VWS V14.01,2013-02-05 18:33:00,
2013-02-05 13:38:00,26.0,1.5,29.92,WNW,291,0.0,2.0,34,0.00,,---,0.00,504.00,VWS V14.01,2013-02-05 18:38:00,
2013-02-05 13:43:00,25.7,3.0,29.92,ENE,70,0.0,4.0,37,0.00,,---,0.00,496.00,VWS V14.01,2013-02-05 18:43:00,
2013-02-05 13:48:00,26.3,2.4,29.92,NNW,343,2.0,2.0,35,0.00,,---,0.00,489.00,VWS V14.01,2013-02-05 18:48:00,
2013-02-05 13:53:00,25.7,0.6,29.92,NNW,346,0.0,3.0,33,0.00,,---,0.00,478.00,VWS V14.01,2013-02-05 18:53:00,
2013-02-05 13:58:00,26.3,2.4,29.92,NNW,346,0.0,3.0,35,0.00,,---,0.00,471.00,VWS V14.01,2013-02-05 18:58:00,
2013-02-05 14:03:00,26.5,1.9,29.92,WNW,299,0.0,2.0,34,0.00,,---,0.00,461.00,VWS V14.01,2013-02-05 19:03:00,
2013-02-05 14:08:00,25.5,0.4,29.92,NW,324,0.0,3.0,33,0.00,,---,0.00,454.00,VWS V14.01,2013-02-05 19:08:00,
2013-02-05 14:13:00,25.7,2.5,29.92,NW,317,2.0,3.0,36,0.00,,---,0.00,441.00,VWS V14.01,2013-02-05 19:13:00,
2013-02-05 14:18:00,25.9,0.8,29.92,NW,322,0.0,0.0,33,0.00,,---,0.00,431.00,VWS V14.01,2013-02-05 19:18:00,
2013-02-05 14:23:00,25.5,1.0,29.92,NW,325,0.0,1.0,34,0.00,,---,0.00,420.00,VWS V14.01,2013-02-05 19:23:00,
2013-02-05 14:28:00,25.5,1.7,29.92,NW,326,1.0,1.0,35,0.00,,---,0.00,255.00,VWS V14.01,2013-02-05 19:28:00,
2013-02-05 14:33:00,25.2,0.8,29.92,NNW,327,0.0,1.0,34,0.00,,---,0.00,56.00,VWS V14.01,2013-02-05 19:33:00,
2013-02-05 14:38:00,24.7,0.3,29.93,NW,310,3.0,3.0,34,0.00,,---,0.00,51.00,VWS V14.01,2013-02-05 19:38:00,
2013-02-05 14:43:00,24.6,1.5,29.92,WNW,285,0.0,3.0,36,0.00,,---,0.00,69.00,VWS V14.01,2013-02-05 19:43:00,
2013-02-05 14:48:00,24.9,1.7,29.92,WNW,287,0.0,2.0,36,0.00,,---,0.00,301.00,VWS V14.01,2013-02-05 19:48:00,
2013-02-05 14:53:00,24.1,0.4,29.92,ENE,73,2.0,2.0,35,0.00,,---,0.00,130.00,VWS V14.01,2013-02-05 19:53:00,
2013-02-05 14:58:00,24.0,0.3,29.91,SE,137,0.0,2.0,35,0.00,,---,0.00,141.00,VWS V14.01,2013-02-05 19:58:00,
2013-02-05 15:03:00,24.1,0.4,29.91,SE,137,0.0,0.0,35,0.00,,---,0.00,172.00,VWS V14.01,2013-02-05 20:03:00,
2013-02-05 15:08:00,24.4,1.3,29.91,SE,137,0.0,0.0,36,0.00,,---,0.00,202.00,VWS V14.01,2013-02-05 20:08:00,
2013-02-05 15:13:00,25.0,1.2,29.91,West,277,0.0,2.0,35,0.00,,---,0.00,76.00,VWS V14.01,2013-02-05 20:13:00,
2013-02-05 15:18:00,24.6,0.2,29.91,North,355,0.0,0.0,34,0.00,,---,0.00,54.00,VWS V14.01,2013-02-05 20:18:00,
2013-02-05 15:23:00,24.3,1.8,29.91,North,9,0.0,0.0,37,0.00,,---,0.00,88.00,VWS V14.01,2013-02-05 20:23:00,
2013-02-05 15:28:00,24.4,1.3,29.91,North,9,1.0,2.0,36,0.00,,---,0.00,63.00,VWS V14.01,2013-02-05 20:28:00,
2013-02-05 15:33:00,24.4,2.5,29.91,North,9,0.0,1.0,38,0.00,,---,0.00,62.00,VWS V14.01,2013-02-05 20:33:00,
2013-02-05 15:38:00,24.6,3.7,29.91,North,9,0.0,1.0,40,0.00,,---,0.00,54.00,VWS V14.01,2013-02-05 20:38:00,
2013-02-05 15:43:00,24.6,1.5,29.91,NE,52,1.0,2.0,36,0.00,,---,0.00,42.00,VWS V14.01,2013-02-05 20:43:00,
2013-02-05 15:48:00,24.6,0.9,29.91,East,83,0.0,1.0,35,0.00,,---,0.00,39.00,VWS V14.01,2013-02-05 20:48:00,
2013-02-05 15:53:00,24.6,0.9,29.91,NE,48,0.0,2.0,35,0.00,,---,0.00,39.00,VWS V14.01,2013-02-05 20:53:00,
2013-02-05 15:58:00,24.4,1.9,29.91,NE,46,0.0,2.0,37,0.00,,---,0.00,35.00,VWS V14.01,2013-02-05 20:58:00,
2013-02-05 16:03:00,24.3,1.8,29.91,NE,46,0.0,0.0,37,0.00,,---,0.00,33.00,VWS V14.01,2013-02-05 21:03:00,
2013-02-05 16:08:00,24.3,1.2,29.91,NE,46,0.0,0.0,36,0.00,,---,0.00,37.00,VWS V14.01,2013-02-05 21:08:00,
2013-02-05 16:13:00,24.1,3.3,29.91,NE,49,0.0,0.0,40,0.00,,---,0.00,40.00,VWS V14.01,2013-02-05 21:13:00,
2013-02-05 16:18:00,24.0,3.2,29.90,ENE,65,0.0,0.0,40,0.00,,---,0.00,39.00,VWS V14.01,2013-02-05 21:18:00,
2013-02-05 16:23:00,24.0,1.5,29.90,ENE,65,0.0,0.0,37,0.00,,---,0.00,28.00,VWS V14.01,2013-02-05 21:23:00,
2013-02-05 16:28:00,24.0,0.9,29.90,ENE,63,0.0,0.0,36,0.00,,---,0.00,25.00,VWS V14.01,2013-02-05 21:28:00,
2013-02-05 16:33:00,23.8,3.0,29.90,ENE,64,1.0,1.0,40,0.00,,---,0.00,21.00,VWS V14.01,2013-02-05 21:33:00,
2013-02-05 16:38:00,23.8,2.5,29.90,ENE,68,1.0,1.0,39,0.00,,---,0.00,16.00,VWS V14.01,2013-02-05 21:38:00,
2013-02-05 16:43:00,23.8,2.5,29.90,ESE,102,0.0,2.0,39,0.00,,---,0.00,11.00,VWS V14.01,2013-02-05 21:43:00,
2013-02-05 16:48:00,23.7,4.0,29.90,SE,129,0.0,0.0,42,0.00,,---,0.00,7.00,VWS V14.01,2013-02-05 21:48:00,
2013-02-05 16:53:00,23.5,2.7,29.91,ESE,115,0.0,1.0,40,0.00,,---,0.00,5.00,VWS V14.01,2013-02-05 21:53:00,
2013-02-05 16:58:00,23.5,2.7,29.91,ESE,115,0.0,1.0,40,0.00,,---,0.00,0.00,VWS V14.01,2013-02-05 21:58:00,
2013-02-05 17:04:00,23.2,2.5,29.91,ESE,115,0.0,0.0,40,0.00,,---,0.00,0.00,VWS V14.01,2013-02-05 22:04:00,
2013-02-05 17:08:00,23.2,2.5,29.91,ESE,115,0.0,0.0,40,0.00,,---,0.00,0.00,VWS V14.01,2013-02-05 22:08:00,
2013-02-05 17:14:00,22.9,3.8,29.91,ESE,115,0.0,0.0,43,0.00,,---,0.00,0.00,VWS V14.01,2013-02-05 22:14:00,
2013-02-05 17:19:00,22.6,4.9,29.91,ESE,115,0.0,0.0,46,0.00,,---,0.00,0.00,VWS V14.01,2013-02-05 22:19:00,
2013-02-05 17:24:00,22.3,7.4,29.91,ESE,115,0.0,0.0,52,0.00,,---,0.00,0.00,VWS V14.01,2013-02-05 22:24:00,
2013-02-05 17:29:00,21.8,5.6,29.91,ESE,115,0.0,0.0,49,0.00,,---,0.00,0.00,VWS V14.01,2013-02-05 22:29:00,
2013-02-05 17:34:00,21.7,5.9,29.91,ESE,115,0.0,0.0,50,0.00,,---,0.00,0.00,VWS V14.01,2013-02-05 22:34:00,
2013-02-05 17:39:00,21.5,4.9,29.91,ESE,115,0.0,0.0,48,0.00,,---,0.00,0.00,VWS V14.01,2013-02-05 22:39:00,
2013-02-05 17:44:00,21.3,6.0,29.91,ESE,115,0.0,0.0,51,0.00,,---,0.00,0.00,VWS V14.01,2013-02-05 22:44:00,
2013-02-05 17:49:00,21.0,5.7,29.91,ESE,115,0.0,0.0,51,0.00,,---,0.00,0.00,VWS V14.01,2013-02-05 22:49:00,
2013-02-05 17:54:00,21.0,6.6,29.91,ESE,115,0.0,1.0,53,0.00,,---,0.00,0.00,VWS V14.01,2013-02-05 22:54:00,
2013-02-05 17:59:00,20.9,6.5,29.90,ESE,115,0.0,1.0,53,0.00,,---,0.00,0.00,VWS V14.01,2013-02-05 22:59:00,
2013-02-05 18:04:00,20.7,5.4,29.90,ESE,113,0.0,0.0,51,0.00,,---,0.00,0.00,VWS V14.01,2013-02-05 23:04:00,
2013-02-05 18:09:00,20.7,6.3,29.90,ESE,113,0.0,0.0,53,0.00,,---,0.00,0.00,VWS V14.01,2013-02-05 23:09:00,
2013-02-05 18:14:00,20.5,5.7,29.90,ESE,113,0.0,0.0,52,0.00,,---,0.00,0.00,VWS V14.01,2013-02-05 23:14:00,
2013-02-05 18:19:00,20.4,6.8,29.90,ESE,113,0.0,0.0,55,0.00,,---,0.00,0.00,VWS V14.01,2013-02-05 23:19:00,
2013-02-05 18:24:00,20.2,6.6,29.91,ESE,113,0.0,1.0,55,0.00,,---,0.00,0.00,VWS V14.01,2013-02-05 23:24:00,
2013-02-05 18:29:00,20.1,6.5,29.91,ESE,113,0.0,1.0,55,0.00,,---,0.00,0.00,VWS V14.01,2013-02-05 23:29:00,
2013-02-05 18:34:00,20.1,7.3,29.91,ESE,113,0.0,0.0,57,0.00,,---,0.00,0.00,VWS V14.01,2013-02-05 23:34:00,
2013-02-05 18:39:00,19.9,5.9,29.91,ESE,113,0.0,0.0,54,0.00,,---,0.00,0.00,VWS V14.01,2013-02-05 23:39:00,
2013-02-05 18:44:00,19.8,6.3,29.91,ESE,113,0.0,1.0,55,0.00,,---,0.00,0.00,VWS V14.01,2013-02-05 23:44:00,
2013-02-05 18:49:00,19.6,6.1,29.91,ESE,113,0.0,0.0,55,0.00,,---,0.00,0.00,VWS V14.01,2013-02-05 23:49:00,
2013-02-05 18:54:00,19.6,5.3,29.91,ESE,112,0.0,0.0,53,0.00,,---,0.00,0.00,VWS V14.01,2013-02-05 23:54:00,
2013-02-05 18:59:00,19.4,6.3,29.91,ESE,112,0.0,1.0,56,0.00,,---,0.00,0.00,VWS V14.01,2013-02-05 23:59:00,
2013-02-05 19:04:00,19.3,6.6,29.91,ESE,111,1.0,2.0,57,0.00,,---,0.00,0.00,VWS V14.01,2013-02-06 00:04:00,
2013-02-05 19:09:00,19.6,5.7,29.91,ESE,112,0.0,2.0,54,0.00,,---,0.00,0.00,VWS V14.01,2013-02-06 00:09:00,
2013-02-05 19:14:00,19.8,5.4,29.91,ESE,106,0.0,2.0,53,0.00,,---,0.00,0.00,VWS V14.01,2013-02-06 00:14:00,
2013-02-05 19:19:00,19.8,5.4,29.91,ESE,107,0.0,1.0,53,0.00,,---,0.00,0.00,VWS V14.01,2013-02-06 00:19:00,
2013-02-05 19:24:00,19.9,5.5,29.91,ESE,122,2.0,2.0,53,0.00,,---,0.00,0.00,VWS V14.01,2013-02-06 00:24:00,
2013-02-05 19:29:00,19.8,5.4,29.91,ESE,122,0.0,2.0,53,0.00,,---,0.00,0.00,VWS V14.01,2013-02-06 00:29:00,
2013-02-05 19:34:00,19.6,5.3,29.91,ESE,120,0.0,0.0,53,0.00,,---,0.00,0.00,VWS V14.01,2013-02-06 00:34:00,
2013-02-05 19:39:00,19.6,5.3,29.91,ESE,121,0.0,2.0,53,0.00,,---,0.00,0.00,VWS V14.01,2013-02-06 00:39:00,
2013-02-05 19:44:00,19.6,4.8,29.91,SE,136,0.0,2.0,52,0.00,,---,0.00,0.00,VWS V14.01,2013-02-06 00:44:00,
2013-02-05 19:49:00,19.6,5.7,29.91,SE,134,0.0,4.0,54,0.00,,---,0.00,0.00,VWS V14.01,2013-02-06 00:49:00,
2013-02-05 19:54:00,19.4,5.9,29.92,SE,140,4.0,4.0,55,0.00,,---,0.00,0.00,VWS V14.01,2013-02-06 00:54:00,
2013-02-05 19:59:00,19.4,5.9,29.92,SE,128,0.0,4.0,55,0.00,,---,0.00,0.00,VWS V14.01,2013-02-06 00:59:00,
2013-02-05 20:04:00,19.9,5.5,29.92,SSE,156,0.0,4.0,53,0.00,,---,0.00,0.00,VWS V14.01,2013-02-06 01:04:00,
2013-02-05 20:09:00,20.1,5.7,29.92,SSE,159,4.0,5.0,53,0.00,,---,0.00,0.00,VWS V14.01,2013-02-06 01:09:00,
2013-02-05 20:14:00,20.2,5.4,29.92,SE,134,2.0,5.0,52,0.00,,---,0.00,0.00,VWS V14.01,2013-02-06 01:14:00,
2013-02-05 20:19:00,20.2,6.2,29.92,SSE,163,0.0,4.0,54,0.00,,---,0.00,0.00,VWS V14.01,2013-02-06 01:19:00,
2013-02-05 20:24:00,20.2,5.8,29.92,SE,144,0.0,4.0,53,0.00,,---,0.00,0.00,VWS V14.01,2013-02-06 01:24:00,
2013-02-05 20:29:00,20.2,5.8,29.92,SSE,156,2.0,6.0,53,0.00,,---,0.00,0.00,VWS V14.01,2013-02-06 01:29:00,
2013-02-05 20:34:00,20.2,6.2,29.93,ESE,121,0.0,5.0,54,0.00,,---,0.00,0.00,VWS V14.01,2013-02-06 01:34:00,
2013-02-05 20:39:00,20.2,6.2,29.92,SE,140,0.0,5.0,54,0.00,,---,0.00,0.00,VWS V14.01,2013-02-06 01:39:00,
2013-02-05 20:44:00,20.2,6.6,29.93,SE,136,0.0,5.0,55,0.00,,---,0.00,0.00,VWS V14.01,2013-02-06 01:44:00,
2013-02-05 20:49:00,20.4,6.8,29.93,SE,128,0.0,1.0,55,0.00,,---,0.00,0.00,VWS V14.01,2013-02-06 01:49:00,
2013-02-05 20:55:00,20.4,6.8,29.93,SE,142,0.0,5.0,55,0.00,,---,0.00,0.00,VWS V14.01,2013-02-06 01:55:00,
2013-02-05 21:00:00,20.4,6.8,29.93,SE,141,2.0,5.0,55,0.00,,---,0.00,0.00,VWS V14.01,2013-02-06 02:00:00,
2013-02-05 21:05:00,20.5,6.9,29.93,SE,134,0.0,2.0,55,0.00,,---,0.00,0.00,VWS V14.01,2013-02-06 02:05:00,
2013-02-05 21:10:00,20.5,7.3,29.93,SE,136,1.0,2.0,56,0.00,,---,0.00,0.00,VWS V14.01,2013-02-06 02:10:00,
2013-02-05 21:15:00,20.5,7.3,29.93,SE,134,0.0,2.0,56,0.00,,---,0.00,0.00,VWS V14.01,2013-02-06 02:15:00,
2013-02-05 21:20:00,20.5,6.9,29.93,ESE,121,0.0,0.0,55,0.00,,---,0.00,0.00,VWS V14.01,2013-02-06 02:20:00,
2013-02-05 21:25:00,20.4,6.8,29.93,SE,132,0.0,4.0,55,0.00,,---,0.00,0.00,VWS V14.01,2013-02-06 02:25:00,
2013-02-05 21:30:00,20.2,7.4,29.93,SE,132,2.0,4.0,57,0.00,,---,0.00,0.00,VWS V14.01,2013-02-06 02:30:00,
2013-02-05 21:35:00,20.1,6.9,29.93,SE,133,0.0,1.0,56,0.00,,---,0.00,0.00,VWS V14.01,2013-02-06 02:35:00,
2013-02-05 21:40:00,20.1,6.9,29.93,SE,132,0.0,2.0,56,0.00,,---,0.00,0.00,VWS V14.01,2013-02-06 02:40:00,
2013-02-05 21:45:00,20.1,7.3,29.93,SE,130,1.0,2.0,57,0.00,,---,0.00,0.00,VWS V14.01,2013-02-06 02:45:00,
2013-02-05 21:50:00,19.9,7.5,29.92,SE,125,0.0,2.0,58,0.00,,---,0.00,0.00,VWS V14.01,2013-02-06 02:50:00,
2013-02-05 21:55:00,19.8,7.8,29.92,SE,124,0.0,2.0,59,0.00,,---,0.00,0.00,VWS V14.01,2013-02-06 02:55:00,
2013-02-05 22:00:00,19.6,7.6,29.92,East,92,0.0,2.0,59,0.00,,---,0.00,0.00,VWS V14.01,2013-02-06 03:00:00,
2013-02-05 22:05:00,19.4,7.4,29.92,ESE,121,0.0,1.0,59,0.00,,---,0.00,0.00,VWS V14.01,2013-02-06 03:05:00,
2013-02-05 22:10:00,19.4,7.8,29.92,ESE,121,1.0,4.0,60,0.00,,---,0.00,0.00,VWS V14.01,2013-02-06 03:10:00,
2013-02-05 22:15:00,19.3,7.7,29.92,ESE,120,0.0,4.0,60,0.00,,---,0.00,0.00,VWS V14.01,2013-02-06 03:15:00,
2013-02-05 22:20:00,19.0,7.8,29.91,ESE,120,0.0,0.0,61,0.00,,---,0.00,0.00,VWS V14.01,2013-02-06 03:20:00,
2013-02-05 22:25:00,18.8,7.6,29.91,ESE,120,0.0,0.0,61,0.00,,---,0.00,0.00,VWS V14.01,2013-02-06 03:25:00,
2013-02-05 22:30:00,18.7,7.9,29.91,ESE,120,0.0,0.0,62,0.00,,---,0.00,0.00,VWS V14.01,2013-02-06 03:30:00,
2013-02-05 22:35:00,18.7,7.9,29.91,ESE,120,0.0,1.0,62,0.00,,---,0.00,0.00,VWS V14.01,2013-02-06 03:35:00,
2013-02-05 22:40:00,18.7,7.9,29.91,NE,47,0.0,1.0,62,0.00,,---,0.00,0.00,VWS V14.01,2013-02-06 03:40:00,
2013-02-05 22:45:00,18.7,8.2,29.91,NE,46,0.0,1.0,63,0.00,,---,0.00,0.00,VWS V14.01,2013-02-06 03:45:00,
2013-02-05 22:50:00,18.7,8.6,29.91,NE,47,0.0,0.0,64,0.00,,---,0.00,0.00,VWS V14.01,2013-02-06 03:50:00,
2013-02-05 22:55:00,18.8,8.6,29.91,NE,47,0.0,0.0,64,0.00,,---,0.00,0.00,VWS V14.01,2013-02-06 03:55:00,
2013-02-05 23:01:00,19.0,8.8,29.91,NE,47,0.0,0.0,64,0.00,,---,0.00,0.00,VWS V14.01,2013-02-06 04:01:00,
2013-02-05 23:06:00,19.1,8.6,29.91,ENE,69,0.0,2.0,63,0.00,,---,0.00,0.00,VWS V14.01,2013-02-06 04:06:00,
2013-02-05 23:11:00,19.3,9.1,29.91,ESE,112,0.0,4.0,64,0.00,,---,0.00,0.00,VWS V14.01,2013-02-06 04:11:00,
2013-02-05 23:16:00,19.4,9.2,29.91,ESE,121,1.0,4.0,64,0.00,,---,0.00,0.00,VWS V14.01,2013-02-06 04:16:00,
2013-02-05 23:21:00,19.4,9.2,29.91,ESE,120,0.0,4.0,64,0.00,,---,0.00,0.00,VWS V14.01,2013-02-06 04:21:00,
2013-02-05 23:26:00,19.6,9.1,29.91,ESE,119,0.0,4.0,63,0.00,,---,0.00,0.00,VWS V14.01,2013-02-06 04:26:00,
2013-02-05 23:31:00,19.6,9.4,29.91,ESE,119,0.0,4.0,64,0.00,,---,0.00,0.00,VWS V14.01,2013-02-06 04:31:00,
2013-02-05 23:36:00,19.6,9.1,29.91,ESE,119,0.0,0.0,63,0.00,,---,0.00,0.00,VWS V14.01,2013-02-06 04:36:00,
2013-02-05 23:41:00,19.6,9.1,29.92,ESE,119,0.0,0.0,63,0.00,,---,0.00,0.00,VWS V14.01,2013-02-06 04:41:00,
2013-02-05 23:46:00,19.6,9.4,29.92,ESE,119,0.0,0.0,64,0.00,,---,0.00,0.00,VWS V14.01,2013-02-06 04:46:00,
2013-02-05 23:51:00,19.6,9.8,29.92,ESE,119,0.0,0.0,65,0.00,,---,0.00,0.00,VWS V14.01,2013-02-06 04:51:00,
2013-02-05 23:56:00,19.4,9.6,29.91,ESE,119,0.0,0.0,65,0.00,,---,0.00,0.00,VWS V14.01,2013-02-06 04:56:00,